Time,TemperatureF,DewpointF,PressureIn,WindDirection,WindDirectionDegrees,WindSpeedMPH,WindSpeedGustMPH,Humidity,HourlyPrecipIn,Conditions,Clouds,dailyrainin,SoftwareType,DateUTC
2013-01-19 00:13:00,32.8,30.0,30.52,East,100,5.0,7.0,90,0.00,,,0.35,weatherlink.com 1.10,2013-01-19 05:13:00,
2013-01-19 00:28:00,32.8,30.0,30.52,East,88,5.0,8.0,89,0.00,,,0.00,weatherlink.com 1.10,2013-01-19 05:28:00,
2013-01-19 00:43:00,32.7,30.0,30.52,East,83,4.0,6.0,90,0.00,,,0.00,weatherlink.com 1.10,2013-01-19 05:43:00,
2013-01-19 00:58:00,32.6,30.0,30.52,East,89,5.0,8.0,90,0.00,,,0.00,weatherlink.com 1.10,2013-01-19 05:58:00,
2013-01-19 01:13:00,33.1,30.0,30.51,NE,56,3.0,7.0,89,0.00,,,0.00,weatherlink.com 1.10,2013-01-19 06:13:00,
2013-01-19 01:28:00,32.9,30.0,30.52,East,90,4.0,8.0,90,0.00,,,0.00,weatherlink.com 1.10,2013-01-19 06:28:00,
2013-01-19 01:43:00,32.9,31.0,30.51,ENE,77,3.0,5.0,91,0.00,,,0.00,weatherlink.com 1.10,2013-01-19 06:43:00,
2013-01-19 01:58:00,32.8,30.0,30.51,ENE,70,2.0,6.0,90,0.00,,,0.00,weatherlink.com 1.10,2013-01-19 06:58:00,
2013-01-19 02:13:00,32.4,30.0,30.51,East,94,7.0,7.0,90,0.00,,,0.00,weatherlink.com 1.10,2013-01-19 07:13:00,
2013-01-19 02:28:00,32.2,30.0,30.52,East,89,5.0,10.0,90,0.00,,,0.00,weatherlink.com 1.10,2013-01-19 07:28:00,
2013-01-19 02:43:00,31.6,29.0,30.52,East,90,5.0,10.0,91,0.00,,,0.00,weatherlink.com 1.10,2013-01-19 07:43:00,
2013-01-19 02:58:00,31.2,29.0,30.52,East,91,3.0,6.0,92,0.00,,,0.00,weatherlink.com 1.10,2013-01-19 07:58:00,
2013-01-19 03:14:00,30.9,29.0,30.52,ENE,71,2.0,4.0,92,0.00,,,0.00,weatherlink.com 1.10,2013-01-19 08:14:00,
2013-01-19 03:29:00,30.3,28.0,30.52,East,86,2.0,5.0,92,0.00,,,0.00,weatherlink.com 1.10,2013-01-19 08:29:00,
2013-01-19 03:44:00,31.0,29.0,30.52,ESE,105,5.0,6.0,92,0.00,,,0.00,weatherlink.com 1.10,2013-01-19 08:44:00,
2013-01-19 03:59:00,30.3,28.0,30.52,East,91,2.0,7.0,92,0.00,,,0.00,weatherlink.com 1.10,2013-01-19 08:59:00,
2013-01-19 04:14:00,29.6,28.0,30.51,ESE,108,4.0,8.0,94,0.00,,,0.00,weatherlink.com 1.10,2013-01-19 09:14:00,
2013-01-19 04:29:00,29.4,28.0,30.50,East,92,6.0,9.0,95,0.00,,,0.00,weatherlink.com 1.10,2013-01-19 09:29:00,
2013-01-19 04:44:00,29.1,28.0,30.50,East,97,6.0,9.0,95,0.00,,,0.00,weatherlink.com 1.10,2013-01-19 09:44:00,
2013-01-19 04:59:00,28.4,27.0,30.50,ESE,117,4.0,9.0,96,0.00,,,0.00,weatherlink.com 1.10,2013-01-19 09:59:00,
2013-01-19 05:14:00,28.0,27.0,30.50,East,94,7.0,10.0,96,0.00,,,0.00,weatherlink.com 1.10,2013-01-19 10:14:00,
2013-01-19 05:29:00,27.7,27.0,30.50,East,98,6.0,10.0,96,0.00,,,0.00,weatherlink.com 1.10,2013-01-19 10:29:00,
2013-01-19 05:44:00,26.3,25.0,30.49,ESE,117,4.0,10.0,95,0.00,,,0.00,weatherlink.com 1.10,2013-01-19 10:44:00,
2013-01-19 05:59:00,25.3,24.0,30.49,ESE,114,3.0,4.0,96,0.00,,,0.00,weatherlink.com 1.10,2013-01-19 10:59:00,
2013-01-19 07:59:00,24.9,24.0,30.52,SE,133,3.0,3.0,96,0.00,,,0.00,weatherlink.com 1.10,2013-01-19 12:59:00,
2013-01-19 08:14:00,25.0,24.0,30.52,ESE,117,3.0,5.0,96,0.00,,,0.00,weatherlink.com 1.10,2013-01-19 13:14:00,
2013-01-19 08:29:00,25.2,24.0,30.51,SE,141,3.0,5.0,96,0.00,,,0.00,weatherlink.com 1.10,2013-01-19 13:29:00,
2013-01-19 08:44:00,25.9,25.0,30.52,SE,136,0.0,5.0,96,0.00,,,0.00,weatherlink.com 1.10,2013-01-19 13:44:00,
2013-01-19 08:59:00,25.8,25.0,30.51,East,93,5.0,5.0,95,0.00,,,0.00,weatherlink.com 1.10,2013-01-19 13:59:00,
2013-01-19 09:14:00,26.3,25.0,30.52,SE,136,0.0,6.0,96,0.00,,,0.00,weatherlink.com 1.10,2013-01-19 14:14:00,
2013-01-19 09:29:00,26.8,26.0,30.52,South,178,2.0,7.0,96,0.00,,,0.00,weatherlink.com 1.10,2013-01-19 14:29:00,
2013-01-19 09:44:00,27.8,27.0,30.52,East,91,4.0,5.0,96,0.00,,,0.00,weatherlink.com 1.10,2013-01-19 14:44:00,
2013-01-19 09:59:00,28.3,27.0,30.52,SE,132,2.0,5.0,96,0.00,,,0.00,weatherlink.com 1.10,2013-01-19 14:59:00,
2013-01-19 10:14:00,29.3,29.0,30.52,East,88,0.0,5.0,97,0.00,,,0.00,weatherlink.com 1.10,2013-01-19 15:14:00,
2013-01-19 10:29:00,30.2,29.0,30.52,East,99,0.0,4.0,96,0.00,,,0.00,weatherlink.com 1.10,2013-01-19 15:29:00,
2013-01-19 10:44:00,31.4,30.0,30.52,SSE,148,0.0,3.0,96,0.00,,,0.00,weatherlink.com 1.10,2013-01-19 15:44:00,
2013-01-19 10:59:00,32.5,32.0,30.51,East,92,4.0,4.0,96,0.00,,,0.00,weatherlink.com 1.10,2013-01-19 15:59:00,
2013-01-19 11:14:00,34.1,33.0,30.51,East,84,2.0,3.0,96,0.00,,,0.00,weatherlink.com 1.10,2013-01-19 16:14:00,
2013-01-19 11:29:00,34.5,33.0,30.50,SSE,157,1.0,5.0,94,0.00,,,0.00,weatherlink.com 1.10,2013-01-19 16:29:00,
2013-01-19 11:44:00,36.5,35.0,30.49,East,93,1.0,2.0,93,0.01,,,0.01,weatherlink.com 1.10,2013-01-19 16:44:00,
2013-01-19 12:00:00,37.0,35.0,30.48,ENE,69,1.0,6.0,91,0.01,,,0.01,weatherlink.com 1.10,2013-01-19 17:00:00,
2013-01-19 13:00:00,39.9,36.0,30.43,South,171,2.0,10.0,84,0.03,,,0.04,weatherlink.com 1.10,2013-01-19 18:00:00,
2013-01-19 13:15:00,40.0,36.0,30.42,ESE,114,6.0,10.0,84,0.03,,,0.05,weatherlink.com 1.10,2013-01-19 18:15:00,
2013-01-19 13:30:00,41.0,36.0,30.41,SE,134,5.0,10.0,83,0.03,,,0.06,weatherlink.com 1.10,2013-01-19 18:30:00,
2013-01-19 13:45:00,42.2,37.0,30.39,SE,141,2.0,10.0,81,0.03,,,0.06,weatherlink.com 1.10,2013-01-19 18:45:00,
2013-01-19 14:00:00,43.1,37.0,30.38,ESE,112,8.0,11.0,78,0.03,,,0.07,weatherlink.com 1.10,2013-01-19 19:00:00,
2013-01-19 14:15:00,44.5,37.0,30.36,SE,124,5.0,14.0,75,0.03,,,0.08,weatherlink.com 1.10,2013-01-19 19:15:00,
2013-01-19 14:30:00,46.1,38.0,30.36,East,91,3.0,8.0,73,0.03,,,0.09,weatherlink.com 1.10,2013-01-19 19:30:00,
2013-01-19 14:45:00,47.2,34.0,30.35,SSW,212,5.0,12.0,61,0.03,,,0.09,weatherlink.com 1.10,2013-01-19 19:45:00,
2013-01-19 15:00:00,48.5,32.0,30.34,SW,226,2.0,21.0,54,0.02,,,0.09,weatherlink.com 1.10,2013-01-19 20:00:00,
2013-01-19 15:30:00,50.2,32.0,30.33,WSW,257,6.0,14.0,50,0.00,,,0.09,weatherlink.com 1.10,2013-01-19 20:30:00,
2013-01-19 16:00:00,49.8,28.0,30.32,WSW,252,2.0,13.0,44,0.00,,,0.09,weatherlink.com 1.10,2013-01-19 21:00:00,
2013-01-19 16:15:00,50.0,28.0,30.32,West,271,7.0,13.0,43,0.00,,,0.09,weatherlink.com 1.10,2013-01-19 21:15:00,
2013-01-19 16:31:00,50.2,28.0,30.32,West,279,6.0,11.0,43,0.00,,,0.09,weatherlink.com 1.10,2013-01-19 21:31:00,
2013-01-19 16:45:00,50.3,28.0,30.31,North,11,3.0,13.0,42,0.00,,,0.09,weatherlink.com 1.10,2013-01-19 21:45:00,
2013-01-19 17:01:00,50.2,28.0,30.32,SW,221,7.0,18.0,43,0.00,,,0.09,weatherlink.com 1.10,2013-01-19 22:01:00,
2013-01-19 17:31:00,49.6,29.0,30.31,WSW,252,5.0,13.0,45,0.00,,,0.09,weatherlink.com 1.10,2013-01-19 22:31:00,
2013-01-19 17:46:00,48.9,28.0,30.31,West,268,3.0,13.0,44,0.00,,,0.09,weatherlink.com 1.10,2013-01-19 22:46:00,
2013-01-19 18:46:00,46.8,27.0,30.30,SW,231,10.0,13.0,47,0.00,,,0.09,weatherlink.com 1.10,2013-01-19 23:46:00,
2013-01-19 19:01:00,46.8,27.0,30.31,WSW,248,3.0,17.0,47,0.00,,,0.09,weatherlink.com 1.10,2013-01-20 00:01:00,
2013-01-19 20:31:00,46.1,28.0,30.29,SW,214,16.0,21.0,49,0.00,,,0.09,weatherlink.com 1.10,2013-01-20 01:31:00,
2013-01-19 20:46:00,45.2,28.0,30.29,West,259,12.0,21.0,51,0.00,,,0.09,weatherlink.com 1.10,2013-01-20 01:46:00,
2013-01-19 21:01:00,45.2,27.0,30.29,NW,316,6.0,20.0,50,0.00,,,0.09,weatherlink.com 1.10,2013-01-20 02:01:00,
2013-01-19 21:16:00,45.1,27.0,30.29,West,271,4.0,19.0,50,0.00,,,0.09,weatherlink.com 1.10,2013-01-20 02:16:00,
2013-01-19 22:16:00,45.1,28.0,30.27,WNW,295,7.0,23.0,51,0.00,,,0.09,weatherlink.com 1.10,2013-01-20 03:16:00,
2013-01-19 22:31:00,45.1,28.0,30.27,SW,231,9.0,24.0,51,0.00,,,0.09,weatherlink.com 1.10,2013-01-20 03:31:00,
2013-01-19 23:01:00,45.4,27.0,30.27,NW,314,5.0,26.0,49,0.00,,,0.09,weatherlink.com 1.10,2013-01-20 04:01:00,
2013-01-19 23:16:00,45.3,27.0,30.27,NNW,333,5.0,28.0,49,0.00,,,0.09,weatherlink.com 1.10,2013-01-20 04:16:00,
2013-01-19 23:31:00,45.1,27.0,30.27,West,267,15.0,24.0,49,0.00,,,0.09,weatherlink.com 1.10,2013-01-20 04:31:00,
2013-01-19 23:46:00,44.7,27.0,30.27,West,263,7.0,21.0,51,0.00,,,0.09,weatherlink.com 1.10,2013-01-20 04:46:00,